This is the latest recevied weather packets stored in our database for station/object KC3AWA. If no packets are shown the sender has not sent any weather packets the latest 10 day(s).
| Time | Temp. | Humidity | Pressure | Rain* | Wind** | Luminosity | Snow |
|---|---|---|---|---|---|---|---|
| 1777997887 | 19.44° C | 59% | 1008.5 hPa | 0 mm | - | 361 W/m² | - |
| 1777997585 | 20.56° C | 56% | 1008.6 hPa | 0 mm | - | 368 W/m² | - |
| 1777997282 | 20° C | 57% | 1008.6 hPa | 0 mm | - | 617 W/m² | - |
| 1777996980 | 20° C | 58% | 1008.9 hPa | 0 mm | - | 377 W/m² | - |
| 1777996676 | 20° C | 57% | 1008.9 hPa | 0 mm | - | 429 W/m² | - |
| 1777996371 | 19.44° C | 59% | 1008.8 hPa | 0 mm | - | 566 W/m² | - |
| 1777996068 | 19.44° C | 58% | 1009 hPa | 0 mm | - | 329 W/m² | - |
| 1777995765 | 20° C | 60% | 1009.1 hPa | 0 mm | - | 370 W/m² | - |
| 1777995461 | 19.44° C | 61% | 1009 hPa | 0 mm | - | 908 W/m² | - |
| 1777995158 | 20° C | 59% | 1008.8 hPa | 0 mm | - | 294 W/m² | - |
| 1777994856 | 20° C | 57% | 1008.6 hPa | 0 mm | - | 332 W/m² | - |
| 1777994552 | 20° C | 58% | 1008.5 hPa | 0 mm | - | 664 W/m² | - |
| 1777994246 | 20° C | 59% | 1008.3 hPa | 0 mm | - | 810 W/m² | - |
| 1777993944 | 20° C | 59% | 1008.3 hPa | 0 mm | - | 366 W/m² | - |
| 1777993640 | 20° C | 61% | 1008 hPa | 0 mm | - | 773 W/m² | - |
| 1777993338 | 20° C | 60% | 1008.1 hPa | 0 mm | - | 607 W/m² | - |
| 1777993032 | 18.89° C | 65% | 1008.2 hPa | 0 mm | - | 744 W/m² | - |
| 1777992731 | 18.33° C | 63% | 1008.1 hPa | 0 mm | - | 684 W/m² | - |
| 1777992428 | 18.33° C | 64% | 1008.4 hPa | 0 mm | - | 295 W/m² | - |
| 1777992126 | 17.78° C | 65% | 1008.2 hPa | 0 mm | - | 292 W/m² | - |
| 1777991823 | 17.78° C | 65% | 1008.3 hPa | 0 mm | - | 330 W/m² | - |
| 1777991520 | 17.78° C | 68% | 1008 hPa | 0 mm | - | 350 W/m² | - |
| 1777991217 | 17.78° C | 68% | 1008 hPa | 0 mm | - | 282 W/m² | - |
| 1777990915 | 17.78° C | 67% | 1008.3 hPa | 0 mm | - | 254 W/m² | - |
| 1777990612 | 17.22° C | 66% | 1008.4 hPa | 0 mm | - | 222 W/m² | - |
* Rain latest hour (hover to see other rain measurements)
** Current wind speed in m/s (hover to see current wind gust speed)